Regional Weather Roundup
Issued by NWS Pendleton, OR

Home | Current Version | Previous Version | Text Only | Print | Product List | Glossary On
Versions: 1 2 3 4 5 6 7 8 9 10 11 12 13 14 15 16 17 18 19 20 21 22 23 24 25 26 27 28 29 30 31 32 33 34 35 36 37 38 39 40 41 42 43 44 45 46 47 48 49 50
000
ASUS46 KPDT 061410
RWRPDT
PENDLETON REGIONAL WEATHER ROUNDUP
NATIONAL WEATHER SERVICE PENDLETON OREGON
600 AM PST TUE DEC 6 2016

NOTE: FAIR INDICATES FEW OR NO CLOUDS BELOW 12,000 FEET WITH NO
SIGNIFICANT WEATHER AND/OR OBSTRUCTIONS TO VISIBILITY.

# INDICATES UNOFFICIAL STATION AND DATA

WAZ520-061510-
EAST SLOPES OF WASHINGTON CASCADES

CITY            SKY/WX      TMP DP  RH  WIND    PRES   REMARKS
#CLE ELUM HS    N/A         20  17  88  CALM    29.95R
#CLE ELUM LAKE  N/A         20  19  96  CALM    30.07R
#GLENWOOD       N/A         27  25  92  CALM    30.05R
#MANASTASH CYN  N/A         20  15  81  CALM    29.93R
#NELSON 3SW     N/A         20  19  96  CALM    30.31R
#NILE           N/A         21  18  88  W2      29.34R
#RONALD 2NW     N/A         20  N/A N/A CALM    29.93R
#TEANAWAY 4NE   N/A         19  17  92  CALM    N/A
#TROUT LAKE 1NE N/A         29  27  92  CALM    30.04R
#TROUT LAKE 1E  N/A         28  27  96  CALM    29.92S
$$

WAZ521-061510-
SIMCOE HIGHLANDS

CITY            SKY/WX      TMP DP  RH  WIND    PRES   REMARKS
#CENTERVILLE 1SWN/A         26  24  92  CALM    30.01R
#GOLDENDALE 1NE N/A         28  25  88  CALM    N/A
#GOLDENDALE 4W  N/A         27  22  81  CALM    30.00R
#GOODNOE HILLS  N/A         29  26  88  E2      29.89R
#LYLE 6NE       N/A         29  28  96  CALM    30.01R
$$

WAZ026-061510-
KITTITAS VALLEY

CITY            SKY/WX      TMP DP  RH  WIND    PRES   REMARKS
ELLENSBURG AP   CLOUDY      22  19  88  CALM    30.00R
#ELLENSBURG CWU N/A         20  18  92  CALM    30.03S
#ELLENSBURG 3NE N/A         20  18  92  CALM    28.08R
#KITTITAS 4N    N/A         23  20  88  W1      30.02R
#KITTITAS 3S    N/A         22  20  92  CALM    30.09R
#THORP 6N       N/A         19  17  92  CALM    30.11R
$$

WAZ027-061510-
YAKIMA VALLEY

CITY            SKY/WX      TMP DP  RH  WIND    PRES   REMARKS
YAKIMA AIRPORT  CLOUDY      30  24  78  W3      30.03R
YAKIMA-VAGABOND CLOUDY      29  22  75  N6      29.99R
#GRANDVIEW      N/A         32  25  75  N1      30.07R
#MABTON         N/A         33  29  85  N2      30.03R
#NACHES 2SW     N/A         28  23  81  W1      29.98R
#TERRACE HTS    N/A         30  25  81  N1      30.05R
#TOPPENISH      N/A         33  26  75  CALM    29.99R
#WEST VALLEY    N/A         28  25  88  CALM    30.07R
#W YAKIMA       N/A         29  24  81  W2      30.10R
#WHITE SWAN 5E  N/A         28  25  88  CALM    30.09S
#WILEY CITY 3W  N/A         27  20  74  CALM    29.97R
$$

WAZ028-061510-
LOWER COLUMBIA BASIN...WASHINGTON

CITY            SKY/WX      TMP DP  RH  WIND    PRES   REMARKS
HANFORD         LGT SNOW    31  29  92  N12     30.01R WCI 22
PASCO           CLOUDY      32  29  89  W8      30.03R
PROSSER AWOS    N/A         34  28  78  VRB6    30.06R
RICHLAND AWOS   CLOUDY      33  32  96  W12     30.03R WCI 24
#BENTON CITY    N/A         32  28  85  CALM    29.95R
#CONNELL 5N     N/A         28  27  96  S1      30.03R
#CONNELL 5NW    N/A         29  27  92  CALM    29.99R
#ELTOPIA 6NW    N/A         29  28  96  CALM    28.96R
#KAHLOTUS       N/A         29  28  96  S2      30.02R
#KENNEWICK 3S   N/A         31  28  88  CALM    30.05R
#PATERSON       N/A         32  29  89  CALM    30.03R
#SAGEMOOR 2W    N/A         29  26  88  CALM    29.87S
#TOUCHET 2S     N/A         32  29  89  W1      30.01S
#WEST PASCO     N/A         32  28  85  NW2     30.03R
$$

WAZ029-061510-
FOOTHILLS OF THE BLUES...WASHINGTON

CITY            SKY/WX      TMP DP  RH  WIND    PRES   REMARKS
WALLA WALLA AP  LGT SNOW    30  28  92  SW8     29.97R FOG
#CLYDE 6NW      N/A         29  28  96  CALM    30.01R
#DAYTON SCHOOL  N/A         29  24  81  SW3     29.95R
#LOWDEN 2SE     N/A         31  30  96  CALM    29.98R
#PLEASANT VIEW 1N/A         28  27  96  CALM    30.05R
#PRESCOTT       N/A         31  30  96  CALM    29.99S
#WHITMAN COLLEGEN/A         30  29  96  N2      30.07R
#WAITSBURG 5S   N/A         28  27  96  SW1     30.11R
#WAITSBURG 8N   N/A         28  N/A N/A N1      29.96R
#WALLA WALLA U  N/A         32  31  96  CALM    30.02S
#WHITMAN MISSIONN/A         31  29  92  CALM    30.03S
$$

WAZ030-061510-
BLUE MOUNTAINS...WASHINGTON

CITY            SKY/WX      TMP DP  RH  WIND    PRES   REMARKS
#DIXIE 5SE      N/A         24  22  92  SW7     29.79S
#SKI BLUEWOOD   N/A         19  17  92  CALM    29.75S
$$

ORZ009-041-WAZ024-061510-
COLUMBIA RIVER GORGE

CITY            SKY/WX      TMP DP  RH  WIND    PRES   REMARKS
HOOD RIVER AP   CLOUDY      32  32  100 CALM    30.03R
THE DALLES AP   LGT SNOW    33  33  100 CALM    30.04R FOG
#ARLINGTON AIRPON/A         31  30  96  CALM    30.06R
#ARLINGTON HS   N/A         32  30  92  CALM    29.96R
#CELILO DOT     N/A         35  31  85  CALM    N/A
#LYLE           N/A         35  33  92  NE2     30.06R
#MOSIER 1S      N/A         32  28  85  CALM    N/A
#MURDOCK        N/A         34  32  92  CALM    30.02R
#SMITHVILLE     N/A         34  32  92  CALM    29.99R

$$

ORZ510-061510-
NORTH CENTRAL OREGON

CITY            SKY/WX      TMP DP  RH  WIND    PRES   REMARKS
#ANTELOPE       N/A         24  22  92  CALM    29.91R
#CHENOWITH 1W   N/A         29  28  96  NE2     N/A
#COW CYN RST AREN/A         26  N/A N/A N3      N/A
#DUFUR 9E       N/A         27  26  96  E9      30.07S
#GRASS VALLEY 1SN/A         27  26  96  E1      29.87R
#KENT DOT       N/A         26  23  88  N6      N/A
#MAUPIN SCHOOL  N/A         32  31  96  CALM    30.02S
#MORO SCHOOL    N/A         29  29  100 CALM    29.95R
#SHANIKO 5WSW   N/A         24  20  84  N1      N/A
#SHANIKO 4NW    N/A         24  22  92  N3      29.84S
#WAPANITIA AIRPON/A         28  26  92  CALM    30.04R
#WASCO DOT      N/A         28  26  92  CALM    N/A
#WASCO 5NE      N/A         26  24  92  CALM    30.04R
$$

ORZ511-061510-
CENTRAL OREGON

CITY            SKY/WX      TMP DP  RH  WIND    PRES   REMARKS
BEND AIRPORT    MOCLDY      25  23  92  CALM    29.86S
MADRAS AIRPORT  CLOUDY      23  23  100 CALM    29.93R
PRINEVILLE AP   LGT SNOW    25  25  100 CALM    29.88R
REDMOND AIRPORT LGT SNOW    28  24  85  CALM    29.88R FOG
#ASHWOOD SCHOOL N/A         25  24  96  CALM    29.88R
#BEND 1SW       N/A         24  22  92  CALM    N/A
#BEND-AWBREY    N/A         27  25  92  SE1     29.99R
#BEND-KIM LN    N/A         22  20  92  CALM    29.79R
#CULVER         N/A         25  22  88  CALM    29.93R
#CULVER 8W      N/A         27  24  88  CALM    29.91R
#LAKE BILLY CHINN/A         27  N/A N/A CALM    30.04R
#MADRAS 4S      N/A         25   5  42  CALM    29.99R
#POWELL BUTTE 3EN/A         25  23  92  CALM    N/A
#POWELL BUTTE   N/A         26  22  85  CALM    29.83S
#PRINEVILLE 3N  N/A         24  23  96  CALM    30.00R

$$


ORZ509-061510-
EAST SLOPES OF OREGON CASCADES

CITY            SKY/WX      TMP DP  RH  WIND    PRES   REMARKS
SISTERS AWOS    N/A         25  23  92  CALM    29.85R
#BLUE BOX PASS  N/A         22  N/A N/A N3      N/A
#CAMP SHERMAN   N/A         25  22  88  CALM    30.05R
#LA PINE DOT    N/A         24  22  92  SE1     N/A
#LA PINE 4NW    N/A         24  21  88  CALM    30.03S
#LAVA BUTTE DOT N/A         22  20  92  CALM    N/A
#SISTERS AIRPOR N/A         24  24  100 CALM    30.17S
#SISTERS ODOT   N/A         25  N/A N/A CALM    N/A
#SISTERS 3N     N/A         25  20  81  CALM    29.88S
#SUNRIVER       N/A         24  22  92  CALM    30.01S
#SUTTLE LK DOT  N/A         21  21  100 NE38G59 N/A    WCI  1
#TUMALO 3W      N/A         24  22  92  CALM    29.86R
#WANOGA BUTTE D N/A         18  14  84  W1      N/A

$$

ORZ044-061510-
LOWER COLUMBIA BASIN...OREGON

CITY            SKY/WX      TMP DP  RH  WIND    PRES   REMARKS
HERMISTON       CLOUDY      33  31  92  SW5     30.01R FOG
#BOARDMAN SCHOOLN/A         36  29  75  NW3     30.03R
#I-84 EX 198 DOTN/A         30  29  96  N1      N/A
#UMATILLA       N/A         33  29  85  CALM    29.98R
$$

ORZ507-061510-
NORTHERN FOOTHILLS OF THE BLUES

CITY            SKY/WX      TMP DP  RH  WIND    PRES   REMARKS
PENDLETON AIRPT LGT SNOW    28  26  92  N5      29.96R FOG
#ADAMS 3WNW     N/A         28  26  92  CALM    30.02R
#ATHENA         N/A         27  26  96  CALM    30.05R
#CAYUSE         N/A         29  28  96  CALM    30.01S
#HELIX SCHOOL   N/A         27  26  96  CALM    30.02R
#HELIX 3N       N/A         27  25  92  N5      29.91R
#HOLDMAN 5SE    N/A         28  26  92  CALM    29.96R
#HOLDMAN 6E     N/A         26  25  96  NW2     29.82S
#M-F GROVE ELEM N/A         29  26  88  CALM    29.95S
#M-FREEWATER 5SEN/A         28  26  92  CALM    29.96S
#PENDLETON DNTN N/A         31  26  81  CALM    29.98S
#PDT AQUATIC CTRN/A         30  30  100 CALM    29.98R
#PDT SUNRIDGE   N/A         29  27  92  CALM    29.99R
#PENDLETON 7NW  N/A         31  26  81  CALM    31.38S
#PILOT ROCK 1S  N/A         29  24  81  CALM    29.95S
#PILOT ROCK     N/A         30  26  85  CALM    29.97R
#UMAPINE 2E     N/A         31  30  96  CALM    29.97S
#WESTON SCHOOL  N/A         27  24  88  N1      29.85R

$$

ORZ508-061510-
SOUTHERN FOOTHILLS OF THE BLUES

CITY            SKY/WX      TMP DP  RH  WIND    PRES   REMARKS
LEXINGTON       LGT SNOW    30  30  100 N5      30.00R
#AJAX           N/A         27  20  74  N2      27.70R
#CONDON SCHOOL  N/A         25  24  96  N1      29.86
#CONDON 5W      N/A         22  19  88  S2      29.84R
#HEPPNER EOC    N/A         27  25  92  W1      29.95R
#HEPPNER 4NE    N/A         25  24  96  N2      30.03R
#LEXINGTON 2SE  N/A         30  27  88  CALM    29.94R
#MIKKALO        N/A         28  26  92  CALM    30.06R
#OLEX 4N        N/A         30  28  92  CALM    29.99R
#RUGGS 5NE      N/A         25  25  100 NW1     30.04R
#RUGGS 2SW      N/A         25  23  92  VRB2    30.05R

$$

ORZ502-503-061510-
BLUE MOUNTAINS

CITY            SKY/WX      TMP DP  RH  WIND    PRES   REMARKS
MEACHAM         LGT SNOW    23  19  84  CALM    29.83R FOG
#BATTLE MTN DOT N/A         21  19  92  N1      N/A
#GREENHORN 9SW  N/A         23  22  96  CALM    26.04S
#HEPPNER 15SE   N/A         21  19  92  CALM    29.84R
#LADD CYN SMT   N/A         22  20  92  E8      N/A
#LADD CREEK ODOTN/A         24  22  92  SW1     N/A
#LONG CREEK HS  N/A         24  24  100 CALM    29.83S
#N POWDER DOT   N/A         22  20  92  CALM    N/A
#PIKES PEAK     N/A         22  20  92  SW1     27.99S
#TOLLGATE       N/A         18  16  92  CALM    29.65S
#TROY SCHOOL    N/A         27  25  92  CALM    29.84S
#UKIAH          N/A         22  20  92  CALM    29.93R
#WESTON 4E      N/A         23  22  96  CALM    29.97R
$$

ORZ505-061510-
JOHN DAY BASIN

CITY            SKY/WX      TMP DP  RH  WIND    PRES   REMARKS
JOHN DAY        LGT SNOW    26  25  96  SW5     29.85R
#DAYVILLE SCHOOLN/A         27  24  88  CALM    29.88R
#MITCHELL 8NW   N/A         24  22  92  CALM    29.98R
#MONUMENT HS    N/A         28  25  88  CALM    29.93R
#MT. VERNON 5SE N/A         23  21  92  CALM    29.78S
#SPRAY SCHOOL   N/A         29  N/A N/A CALM    N/A
$$

ORZ506-061510-
OCHOCO AND JOHN DAY HIGHLANDS

CITY            SKY/WX      TMP DP  RH  WIND    PRES   REMARKS
#BUCK CREEK DOT N/A         26  26  100 SW6     N/A
#HORSE RIDGE DO N/A         22  19  88  CALM    N/A
#KEYES SMT DOT  N/A         21  18  88  SW1     N/A
#PAULINA SCHOOL N/A         22  19  88  CALM    N/A
#PINE MTN OBS   N/A         17  15  92  CALM    N/A
#PRAIRIE CITY   N/A         25  20  81  CALM    30.01S
#SENECA         N/A         17  N/A N/A CALM    N/A
#SENECA 9NW     N/A         16  14  92  CALM    30.00R
$$

ORZ049-061510-
GRANDE RONDE VALLEY

CITY            SKY/WX      TMP DP  RH  WIND    PRES   REMARKS
LA GRANDE       CLOUDY      27  18  68  S6      29.88R
#COVE           N/A         25  24  96  SE1     29.91S
#COVE SCHOOL    N/A         25  23  92  CALM    29.90S
#COVE 6NW       N/A         26  23  88  CALM    30.01R
#ELGIN 3N       N/A         24  18  77  CALM    29.86S
#IMBLER SCHOOL  N/A         24  21  88  SE1     29.85S
#ISLAND CITY 4N N/A         34  33  96  CALM    30.04R
#LADD CYN DOT   N/A         26  22  85  SE6     N/A
#UNION 1S       N/A         27  23  85  E6      30.01S
$$

ORZ050-061510-
WALLOWA COUNTY

CITY            SKY/WX      TMP DP  RH  WIND    PRES   REMARKS
JOSEPH AIRPORT  CLOUDY      16  14  92  CALM    29.82R
#IMNAHA SCHOOL  N/A         30  25  81  N6      29.91R
#IMNAHA 10S     N/A         29  16  58  SW2     29.85S
#JOSEPH 3N      N/A         15  12  88  CALM    29.85
#JOSEPH 3W      N/A         17  12  80  CALM    29.65S
#LOSTINE        N/A         20  18  92  CALM    29.83R
#LOSTINE 3SE    N/A         19  17  92  S1      29.85S
#MT HOWARD 8000 N/A          8   4  83  W5      29.52S
#PROMISE 1S     N/A         22  18  84  E3      30.10R
#WALLOWA SCHOOL N/A         21  19  92  CALM    29.85R



$$



USA.gov is the U.S. government's official web portal to all federal, state and local government web resources and services.